カタログに戻る

CENTISPACE-1 S15

運用中ナビゲーションLEO
NORAD 62584·PAYLOAD·🇨🇳 China

打ち上げ Jan 13, 2025 から Yellow Sea Launch Area

Loading…

次のパス (今後24時間)

TLE

最新Source: Space-Track

元期: Sep 14, 2026, 14:39 UTC

1 62584U 25007K   26257.61074370 -.00000046  00000-0  90016-4 0  9990
2 62584  54.9885 339.8991 0011632 246.6637 113.3096 13.80583723 87081

AllMySatでCENTISPACE-1 S15をリアルタイム追跡

Download on the App Store